KLM649 EGKK-EGPH

Flight info

Callsign KLM649
Flight time 1h 2m
Altitude 34000
Route LAM L10 BPK UN601 RIBEL DCT INPIP
Aircraft B738/M-SDE2E3FGHIRWXY/LB1

Departure

Time 2026-04-22 18:50
Airport London Gatwick Airport (EGKK)

Arrival

Time 2026-04-22 19:52
Airport Edinburgh Airport (EGPH)
Time Latitude Longitude Altitude Speed Heading
2026-04-22 17:58 51.15565 -0.17821 204 ft 0 kts 350°
2026-04-22 18:32 51.15561 -0.17820 215 ft 1 kts 350°
2026-04-22 18:32 51.15553 -0.17818 215 ft 1 kts 351°
2026-04-22 18:33 51.15545 -0.17815 212 ft 2 kts 351°
2026-04-22 18:33 51.15534 -0.17813 208 ft 2 kts 351°
2026-04-22 18:33 51.15520 -0.17809 211 ft 2 kts 348°
2026-04-22 18:33 51.15506 -0.17799 209 ft 2 kts 301°
2026-04-22 18:34 51.15502 -0.17784 208 ft 1 kts 264°
2026-04-22 18:34 51.15502 -0.17780 208 ft 0 kts 258°
2026-04-22 18:36 51.15502 -0.17782 208 ft 1 kts 258°
2026-04-22 18:36 51.15498 -0.17815 207 ft 4 kts 258°
2026-04-22 18:36 51.15492 -0.17856 204 ft 4 kts 257°
2026-04-22 18:36 51.15486 -0.17896 210 ft 4 kts 257°
2026-04-22 18:37 51.15481 -0.17935 206 ft 4 kts 257°
2026-04-22 18:37 51.15476 -0.17973 210 ft 3 kts 257°
2026-04-22 18:37 51.15470 -0.18010 208 ft 3 kts 257°
2026-04-22 18:37 51.15465 -0.18047 206 ft 3 kts 257°
2026-04-22 18:38 51.15460 -0.18083 209 ft 4 kts 257°
2026-04-22 18:38 51.15453 -0.18130 208 ft 5 kts 256°
2026-04-22 18:38 51.15445 -0.18179 213 ft 5 kts 256°
2026-04-22 18:39 51.15407 -0.18280 206 ft 6 kts 194°
2026-04-22 18:39 51.15366 -0.18274 215 ft 6 kts 164°
2026-04-22 18:39 51.15326 -0.18257 204 ft 6 kts 166°
2026-04-22 18:39 51.15287 -0.18245 209 ft 6 kts 168°
2026-04-22 18:40 51.15248 -0.18231 204 ft 6 kts 167°
2026-04-22 18:40 51.15209 -0.18221 208 ft 6 kts 185°
2026-04-22 18:40 51.15188 -0.18269 207 ft 6 kts 257°
2026-04-22 18:40 51.15181 -0.18338 206 ft 10 kts 261°
2026-04-22 18:41 51.15167 -0.18467 206 ft 13 kts 258°
2026-04-22 18:41 51.15149 -0.18605 204 ft 12 kts 257°
2026-04-22 18:41 51.15130 -0.18736 204 ft 12 kts 257°
2026-04-22 18:41 51.15112 -0.18865 213 ft 12 kts 257°
2026-04-22 18:42 51.15092 -0.19014 204 ft 15 kts 258°
2026-04-22 18:42 51.15070 -0.19180 208 ft 15 kts 258°
2026-04-22 18:42 51.15048 -0.19340 204 ft 14 kts 257°
2026-04-22 18:42 51.15027 -0.19493 212 ft 14 kts 257°
2026-04-22 18:43 51.15007 -0.19639 204 ft 13 kts 257°
2026-04-22 18:43 51.14987 -0.19780 210 ft 13 kts 257°
2026-04-22 18:43 51.14967 -0.19916 207 ft 12 kts 257°
2026-04-22 18:43 51.14948 -0.20049 206 ft 12 kts 258°
2026-04-22 18:44 51.14931 -0.20180 207 ft 12 kts 257°
2026-04-22 18:44 51.14913 -0.20306 214 ft 12 kts 257°
2026-04-22 18:44 51.14896 -0.20428 213 ft 11 kts 258°
2026-04-22 18:44 51.14880 -0.20548 206 ft 11 kts 258°
2026-04-22 18:45 51.14864 -0.20664 204 ft 11 kts 258°
2026-04-22 18:45 51.14849 -0.20777 204 ft 10 kts 257°
2026-04-22 18:45 51.14833 -0.20887 204 ft 10 kts 257°
2026-04-22 18:45 51.14818 -0.20994 206 ft 10 kts 257°
2026-04-22 18:46 51.14804 -0.21098 207 ft 9 kts 257°
2026-04-22 18:46 51.14783 -0.21196 208 ft 9 kts 254°
2026-04-22 18:46 51.14768 -0.21294 207 ft 9 kts 258°
2026-04-22 18:46 51.14749 -0.21385 211 ft 9 kts 233°
2026-04-22 18:47 51.14738 -0.21398 208 ft 0 kts 206°
2026-04-22 18:48 51.14728 -0.21404 206 ft 5 kts 195°
2026-04-22 18:48 51.14672 -0.21375 206 ft 10 kts 137°
2026-04-22 18:48 51.14634 -0.21333 207 ft 0 kts 161°
2026-04-22 18:49 51.14631 -0.21331 207 ft 2 kts 161°
2026-04-22 18:49 51.14574 -0.21298 205 ft 11 kts 153°
2026-04-22 18:49 51.14522 -0.21212 206 ft 11 kts 104°
2026-04-22 18:49 51.14534 -0.21088 206 ft 13 kts 76°
2026-04-22 18:50 51.14593 -0.20645 208 ft 75 kts 77°
2026-04-22 18:50 51.14749 -0.19518 212 ft 130 kts 77°
2026-04-22 18:50 51.14968 -0.17905 391 ft 159 kts 78°
2026-04-22 18:50 51.15164 -0.16179 1137 ft 157 kts 80°
2026-04-22 18:51 51.15386 -0.14482 1917 ft 154 kts 78°
2026-04-22 18:51 51.15644 -0.12715 2231 ft 175 kts 79°
2026-04-22 18:51 51.15932 -0.10717 2403 ft 194 kts 79°
2026-04-22 18:51 51.16244 -0.08539 2600 ft 209 kts 79°
2026-04-22 18:52 51.16774 -0.06334 2951 ft 220 kts 63°
2026-04-22 18:52 51.17672 -0.04339 3371 ft 225 kts 57°
2026-04-22 18:52 51.18646 -0.02361 3771 ft 228 kts 57°
2026-04-22 18:52 51.19640 -0.00348 4196 ft 233 kts 56°
2026-04-22 18:53 51.20666 0.01752 4474 ft 249 kts 56°
2026-04-22 18:53 51.21754 0.03992 4904 ft 258 kts 56°
2026-04-22 18:53 51.22858 0.06272 5387 ft 264 kts 57°
2026-04-22 18:53 51.23983 0.08604 6070 ft 266 kts 56°
2026-04-22 18:54 51.24993 0.11059 6750 ft 264 kts 74°
2026-04-22 18:54 51.25382 0.13882 7525 ft 261 kts 82°
2026-04-22 18:54 51.25710 0.16720 8138 ft 266 kts 82°
2026-04-22 18:54 51.26056 0.19665 8916 ft 266 kts 82°
2026-04-22 18:55 51.26400 0.22584 9639 ft 269 kts 83°
2026-04-22 18:55 51.26750 0.25548 10281 ft 276 kts 82°
2026-04-22 18:55 51.27106 0.28546 11011 ft 277 kts 80°
2026-04-22 18:55 51.27925 0.31355 11692 ft 288 kts 52°
2026-04-22 18:56 51.29514 0.33333 12370 ft 299 kts 29°
2026-04-22 18:56 51.31528 0.34299 13057 ft 308 kts
2026-04-22 18:56 51.33686 0.34016 13628 ft 318 kts 346°
2026-04-22 18:56 51.35693 0.32470 14303 ft 324 kts 329°
2026-04-22 18:57 51.37599 0.30468 14952 ft 328 kts 327°
2026-04-22 18:57 51.39471 0.28391 15749 ft 327 kts 326°
2026-04-22 18:57 51.41420 0.26210 16446 ft 333 kts 327°
2026-04-22 18:57 51.43263 0.24160 17136 ft 334 kts 326°
2026-04-22 18:58 51.45184 0.22037 17807 ft 340 kts 327°
2026-04-22 18:58 51.47147 0.19880 18538 ft 341 kts 327°
2026-04-22 18:58 51.49098 0.17741 19260 ft 340 kts 328°
2026-04-22 18:58 51.51053 0.15601 19958 ft 338 kts 328°
2026-04-22 18:59 51.52977 0.13496 20802 ft 333 kts 328°
2026-04-22 18:59 51.54890 0.11403 21532 ft 331 kts 329°
2026-04-22 18:59 51.56794 0.09322 22184 ft 332 kts 328°
2026-04-22 18:59 51.58707 0.07230 22783 ft 334 kts 328°
2026-04-22 19:00 51.59982 0.05833 23190 ft 335 kts 328°
2026-04-22 19:00 51.62561 0.03005 24068 ft 335 kts 328°
2026-04-22 19:00 51.64458 0.00920 24616 ft 335 kts 328°
2026-04-22 19:00 51.66383 -0.01197 25135 ft 337 kts 327°
2026-04-22 19:01 51.68343 -0.03354 25473 ft 344 kts 327°
2026-04-22 19:01 51.70326 -0.05537 25938 ft 346 kts 327°
2026-04-22 19:01 51.72313 -0.07728 26516 ft 344 kts 327°
2026-04-22 19:01 51.74274 -0.09894 27184 ft 340 kts 326°
2026-04-22 19:02 51.76245 -0.11965 27846 ft 336 kts 329°
2026-04-22 19:02 51.78245 -0.13889 28452 ft 333 kts 330°
2026-04-22 19:02 51.80242 -0.15757 28989 ft 332 kts 330°
2026-04-22 19:02 51.82238 -0.17621 29500 ft 329 kts 330°
2026-04-22 19:03 51.84211 -0.19472 30103 ft 326 kts 329°
2026-04-22 19:03 51.86155 -0.21307 30625 ft 324 kts 329°
2026-04-22 19:03 51.88103 -0.23154 30733 ft 334 kts 329°
2026-04-22 19:03 51.90127 -0.25080 30821 ft 343 kts 329°
2026-04-22 19:04 51.94343 -0.29106 31000 ft 361 kts 329°
2026-04-22 19:04 51.98779 -0.33354 31151 ft 378 kts 329°
2026-04-22 19:05 52.03407 -0.37796 31297 ft 395 kts 329°
2026-04-22 19:05 52.08221 -0.42428 31424 ft 410 kts 328°
2026-04-22 19:06 52.13164 -0.47214 31538 ft 423 kts 328°
2026-04-22 19:06 52.15707 -0.49685 31665 ft 427 kts 328°
2026-04-22 19:07 52.20810 -0.54650 32317 ft 425 kts 328°
2026-04-22 19:07 52.23346 -0.57121 32739 ft 423 kts 328°
2026-04-22 19:07 52.25863 -0.59576 33049 ft 422 kts 328°
2026-04-22 19:07 52.28387 -0.62041 33346 ft 422 kts 328°
2026-04-22 19:08 52.30912 -0.64510 33606 ft 423 kts 328°
2026-04-22 19:08 52.33432 -0.66977 33889 ft 423 kts 328°
2026-04-22 19:08 52.35923 -0.69419 34217 ft 422 kts 328°
2026-04-22 19:08 52.38434 -0.71884 34395 ft 423 kts 328°
2026-04-22 19:09 52.40973 -0.74381 34394 ft 426 kts 328°
2026-04-22 19:09 52.45195 -0.78541 34389 ft 425 kts 328°
2026-04-22 19:10 52.50212 -0.83495 34384 ft 419 kts 328°
2026-04-22 19:10 52.56046 -0.89276 34392 ft 419 kts 328°
2026-04-22 19:11 52.60998 -0.94194 34345 ft 419 kts 328°
2026-04-22 19:11 52.65993 -0.99145 34331 ft 419 kts 328°
2026-04-22 19:12 52.71002 -1.04113 34318 ft 421 kts 327°
2026-04-22 19:12 52.76016 -1.09112 34409 ft 422 kts 327°
2026-04-22 19:13 52.81043 -1.14167 34405 ft 424 kts 327°
2026-04-22 19:13 52.86053 -1.19223 34404 ft 426 kts 327°
2026-04-22 19:14 52.91114 -1.24340 34402 ft 427 kts 327°
2026-04-22 19:14 52.96196 -1.29490 34403 ft 428 kts 327°
2026-04-22 19:15 53.00413 -1.33767 34408 ft 428 kts 327°
2026-04-22 19:15 53.06355 -1.39801 34415 ft 428 kts 327°
2026-04-22 19:16 53.11397 -1.44939 34419 ft 428 kts 327°
2026-04-22 19:16 53.16467 -1.50120 34430 ft 427 kts 327°
2026-04-22 19:17 53.21534 -1.55314 34424 ft 427 kts 327°
2026-04-22 19:17 53.26587 -1.60508 34437 ft 427 kts 327°
2026-04-22 19:18 53.31607 -1.65679 34436 ft 427 kts 327°
2026-04-22 19:18 53.36666 -1.70899 34446 ft 428 kts 327°
2026-04-22 19:19 53.41735 -1.76144 34440 ft 428 kts 327°
2026-04-22 19:19 53.46801 -1.81401 34450 ft 428 kts 327°
2026-04-22 19:20 53.51867 -1.86686 34439 ft 429 kts 327°
2026-04-22 19:20 53.56911 -1.91966 34446 ft 430 kts 327°
2026-04-22 19:21 53.61984 -1.97283 34444 ft 430 kts 327°
2026-04-22 19:21 53.67062 -2.02593 34443 ft 430 kts 327°
2026-04-22 19:22 53.72148 -2.07927 34453 ft 430 kts 327°
2026-04-22 19:22 53.77414 -2.12580 34442 ft 432 kts 336°
2026-04-22 19:23 53.83027 -2.16252 34443 ft 433 kts 335°
2026-04-22 19:23 53.88608 -2.20071 34443 ft 433 kts 335°
2026-04-22 19:24 53.94193 -2.23906 34456 ft 432 kts 335°
2026-04-22 19:24 53.99769 -2.27736 34452 ft 432 kts 335°
2026-04-22 19:25 54.05306 -2.31550 34462 ft 432 kts 335°
2026-04-22 19:25 54.10878 -2.35395 34451 ft 432 kts 335°
2026-04-22 19:26 54.16456 -2.39256 34454 ft 432 kts 335°
2026-04-22 19:26 54.22029 -2.43125 34456 ft 433 kts 335°
2026-04-22 19:27 54.27607 -2.47010 34461 ft 433 kts 335°
2026-04-22 19:27 54.33207 -2.50922 34212 ft 439 kts 335°
2026-04-22 19:27 54.35995 -2.52875 33958 ft 437 kts 335°
2026-04-22 19:28 54.38804 -2.54842 33671 ft 435 kts 335°
2026-04-22 19:28 54.41601 -2.56806 33391 ft 436 kts 335°
2026-04-22 19:28 54.44419 -2.58788 33134 ft 438 kts 335°
2026-04-22 19:28 54.47236 -2.60772 32872 ft 439 kts 335°
2026-04-22 19:29 54.50070 -2.62771 32605 ft 440 kts 335°
2026-04-22 19:29 54.52912 -2.64779 32356 ft 442 kts 335°
2026-04-22 19:29 54.55752 -2.66788 32112 ft 443 kts 335°
2026-04-22 19:29 54.58569 -2.68783 31866 ft 444 kts 334°
2026-04-22 19:30 54.60506 -2.70156 31486 ft 449 kts 334°
2026-04-22 19:30 54.64376 -2.72909 30705 ft 458 kts 334°
2026-04-22 19:30 54.67310 -2.74997 30251 ft 450 kts 334°
2026-04-22 19:30 54.70180 -2.77038 29569 ft 446 kts 334°
2026-04-22 19:31 54.73042 -2.79081 28930 ft 443 kts 334°
2026-04-22 19:31 54.75874 -2.81106 28284 ft 440 kts 335°
2026-04-22 19:31 54.78694 -2.83126 27642 ft 436 kts 335°
2026-04-22 19:31 54.81456 -2.85107 27033 ft 433 kts 335°
2026-04-22 19:32 54.84263 -2.87123 26422 ft 430 kts 335°
2026-04-22 19:32 54.86987 -2.89082 25844 ft 428 kts 335°
2026-04-22 19:32 54.89729 -2.91060 25259 ft 425 kts 335°
2026-04-22 19:32 54.92445 -2.93026 24690 ft 423 kts 335°
2026-04-22 19:33 54.95148 -2.94990 24140 ft 420 kts 335°
2026-04-22 19:33 54.97843 -2.96948 23511 ft 418 kts 336°
2026-04-22 19:33 55.00520 -2.98893 22857 ft 416 kts 335°
2026-04-22 19:33 55.03188 -3.00838 22228 ft 414 kts 335°
2026-04-22 19:34 55.05835 -3.02770 21615 ft 412 kts 336°
2026-04-22 19:34 55.08480 -3.04703 20997 ft 411 kts 336°
2026-04-22 19:34 55.11116 -3.06633 20414 ft 410 kts 336°
2026-04-22 19:34 55.13733 -3.08550 19821 ft 406 kts 336°
2026-04-22 19:35 55.16321 -3.10449 19247 ft 399 kts 337°
2026-04-22 19:35 55.18848 -3.12301 18861 ft 388 kts 337°
2026-04-22 19:35 55.20475 -3.13493 18638 ft 378 kts 336°
2026-04-22 19:35 55.23620 -3.15802 18164 ft 362 kts 336°
2026-04-22 19:36 55.25908 -3.17485 17812 ft 351 kts 336°
2026-04-22 19:36 55.28132 -3.19123 17348 ft 343 kts 336°
2026-04-22 19:36 55.30406 -3.20291 16743 ft 342 kts 356°
2026-04-22 19:36 55.32772 -3.20132 16237 ft 338 kts
2026-04-22 19:37 55.35103 -3.19753 15686 ft 336 kts
2026-04-22 19:37 55.37426 -3.19349 15142 ft 334 kts
2026-04-22 19:37 55.39738 -3.18950 14614 ft 332 kts
2026-04-22 19:37 55.42028 -3.18567 14058 ft 330 kts
2026-04-22 19:38 55.44309 -3.18194 13536 ft 327 kts
2026-04-22 19:38 55.46560 -3.17833 13010 ft 324 kts
2026-04-22 19:38 55.48797 -3.17478 12488 ft 321 kts
2026-04-22 19:38 55.51012 -3.17128 11981 ft 318 kts
2026-04-22 19:39 55.53173 -3.16787 11491 ft 315 kts
2026-04-22 19:39 55.55344 -3.16446 11001 ft 313 kts
2026-04-22 19:39 55.57502 -3.16105 10564 ft 309 kts
2026-04-22 19:39 55.59629 -3.15770 10118 ft 304 kts
2026-04-22 19:40 55.61720 -3.15439 9664 ft 300 kts
2026-04-22 19:40 55.63787 -3.15112 9222 ft 296 kts
2026-04-22 19:40 55.65816 -3.14792 8840 ft 291 kts
2026-04-22 19:40 55.67814 -3.14476 8529 ft 284 kts
2026-04-22 19:41 55.69739 -3.14172 8515 ft 273 kts
2026-04-22 19:41 55.71614 -3.13900 8528 ft 277 kts
2026-04-22 19:41 55.73536 -3.14610 8525 ft 283 kts 333°
2026-04-22 19:41 55.75066 -3.16744 8428 ft 288 kts 307°
2026-04-22 19:42 55.75965 -3.19912 8086 ft 290 kts 280°
2026-04-22 19:42 55.76197 -3.23431 7734 ft 287 kts 271°
2026-04-22 19:42 55.76296 -3.26984 7363 ft 288 kts 270°
2026-04-22 19:42 55.76347 -3.29343 7126 ft 289 kts 269°
2026-04-22 19:43 55.76518 -3.37616 6113 ft 285 kts 269°
2026-04-22 19:43 55.76563 -3.39964 5682 ft 290 kts 269°
2026-04-22 19:43 55.76656 -3.44751 5025 ft 290 kts 270°
2026-04-22 19:44 55.76699 -3.47123 4667 ft 290 kts 270°
2026-04-22 19:44 55.76758 -3.50674 4250 ft 286 kts 269°
2026-04-22 19:44 55.76817 -3.54183 3879 ft 281 kts 269°
2026-04-22 19:44 55.76869 -3.57635 3487 ft 278 kts 269°
2026-04-22 19:45 55.76906 -3.61040 3087 ft 275 kts 269°
2026-04-22 19:45 55.77014 -3.64350 2981 ft 261 kts 283°
2026-04-22 19:45 55.77809 -3.67099 2991 ft 244 kts 315°
2026-04-22 19:45 55.79087 -3.68908 3018 ft 227 kts 328°
2026-04-22 19:46 55.80335 -3.70413 2973 ft 212 kts 329°
2026-04-22 19:46 55.81522 -3.71776 2960 ft 198 kts 339°
2026-04-22 19:46 55.82814 -3.72006 2989 ft 185 kts 27°
2026-04-22 19:46 55.83716 -3.70571 3020 ft 174 kts 65°
2026-04-22 19:47 55.84354 -3.68698 3001 ft 181 kts 58°
2026-04-22 19:47 55.85058 -3.66855 2998 ft 178 kts 63°
2026-04-22 19:47 55.85664 -3.65012 2987 ft 167 kts 64°
2026-04-22 19:47 55.86249 -3.63238 3000 ft 166 kts 64°
2026-04-22 19:48 55.86835 -3.61479 2996 ft 164 kts 64°
2026-04-22 19:48 55.87424 -3.59722 2910 ft 166 kts 63°
2026-04-22 19:48 55.88008 -3.57984 2686 ft 164 kts 63°
2026-04-22 19:48 55.88582 -3.56280 2474 ft 156 kts 63°
2026-04-22 19:49 55.89121 -3.54677 2273 ft 147 kts 62°
2026-04-22 19:49 55.89637 -3.53144 2061 ft 143 kts 62°
2026-04-22 19:49 55.90136 -3.51662 1898 ft 137 kts 63°
2026-04-22 19:49 55.90623 -3.50211 1687 ft 136 kts 63°
2026-04-22 19:50 55.91109 -3.48770 1488 ft 136 kts 62°
2026-04-22 19:50 55.91598 -3.47316 1307 ft 136 kts 62°
2026-04-22 19:50 55.92076 -3.45901 1095 ft 134 kts 62°
2026-04-22 19:50 55.92565 -3.44451 910 ft 136 kts 60°
2026-04-22 19:51 55.93037 -3.43029 756 ft 135 kts 61°
2026-04-22 19:51 55.93515 -3.41560 542 ft 137 kts 59°
2026-04-22 19:51 55.94010 -3.40124 316 ft 137 kts 57°
2026-04-22 19:51 55.94500 -3.38694 140 ft 131 kts 57°
2026-04-22 19:52 55.94933 -3.37437 105 ft 106 kts 59°
2026-04-22 19:52 55.95248 -3.36520 102 ft 68 kts 58°
2026-04-22 19:52 55.95467 -3.35871 99 ft 51 kts 59°
2026-04-22 19:52 55.95553 -3.35529 101 ft 20 kts 109°
2026-04-22 19:53 55.95482 -3.35419 101 ft 8 kts 149°
2026-04-22 19:53 55.95437 -3.35370 104 ft 7 kts 148°
2026-04-22 19:53 55.95390 -3.35378 104 ft 7 kts 219°
2026-04-22 19:53 55.95365 -3.35451 106 ft 7 kts 251°
2026-04-22 19:54 55.95360 -3.35539 105 ft 8 kts 268°
2026-04-22 19:54 55.95347 -3.35650 102 ft 11 kts 239°
2026-04-22 19:54 55.95307 -3.35766 101 ft 11 kts 239°
2026-04-22 19:54 55.95268 -3.35880 101 ft 11 kts 239°
2026-04-22 19:55 55.95224 -3.36009 100 ft 14 kts 238°
2026-04-22 19:55 55.95174 -3.36153 103 ft 13 kts 238°
2026-04-22 19:55 55.95129 -3.36293 103 ft 13 kts 239°
2026-04-22 19:55 55.95091 -3.36390 105 ft 7 kts 215°
2026-04-22 19:56 55.95048 -3.36383 106 ft 7 kts 142°
2026-04-22 19:56 55.95011 -3.36333 106 ft 7 kts 148°
2026-04-22 19:56 55.94977 -3.36301 106 ft 1 kts 152°
2026-04-22 19:56 55.94968 -3.36290 106 ft 2 kts 145°
2026-04-22 19:57 55.94967 -3.36288 106 ft 0 kts 145°